Flag for Malaysia Weather past 2 weeks in Johor Bahru, Malaysia

Now
84 °F

Partly sunny.


Feels Like: 96 °F
Forecast: 78 / 90 °F
Wind: 9 mph from South

Location: Singapore / Paya Lebar

Current Time: Aug 30, 2015 at 9:58:08 AM

Latest Report: Aug 30, 2015 at 9:00 AM


Visibility: 6 mi

Pressure: 29.89 "Hg

Humidity: 84%

Dew point: 79 °F

Location of Johor BahruLocation

Historic Weather in Johor Bahru — Graph

°F

Johor Bahru temperature yesterday

Maximum temperature yesterday: 91 °F (at 2:00 PM)
Minimum temperature yesterday: 82 °F (at 7:00 AM)
Average temperature yesterday: 87 °F

Past Weeks' High & Low Weather Summary

 TemperatureHumidityPressure
High91 °F (Aug 15, 1:00 PM)94% (Aug 27, 5:00 AM)29.92 "Hg (Aug 27, 5:00 AM)
Low79 °F (Aug 27, 5:00 AM)44% (Aug 18, 5:00 PM)29.74 "Hg (Aug 22, 4:00 PM)
Average86 °F73%29.84 "Hg
* Reported Aug 15 8:00 AM — Aug 30 8:00 AM, Johor Bahru, Weather by CustomWeather, © 2015

Note: Actual official high and low records may vary slightly from our data, if they occured in-between our weather recording intervals... More about our weather records

Advertising

Johor Bahru weather history for previous 24 hours

 ConditionsComfort  
Time TempWeatherWind HumidityBarometerVisibility
8:00 AM
Sun, Aug 30
84 °FPartly sunny.7 mph79%29.86 "Hg6 mi
7:00 AM82 °FPartly sunny.5 mph84%29.83 "HgN/A
6:00 AM82 °FPassing clouds.5 mph84%29.83 "HgN/A
5:00 AM82 °FPassing clouds.6 mph89%29.83 "HgN/A
11:00 PM
Sat, Aug 29
84 °FPassing clouds.8 mph79%29.86 "HgN/A
10:00 PM84 °FPassing clouds.7 mph79%29.83 "HgN/A
9:00 PM84 °FPassing clouds.9 mph79%29.80 "HgN/A
8:00 PM86 °FPassing clouds.9 mph70%29.77 "HgN/A
7:00 PM88 °FPartly sunny.8 mph66%29.77 "HgN/A
6:00 PM88 °FPartly sunny.12 mph70%29.74 "HgN/A
5:00 PM90 °FPartly sunny.10 mph67%29.74 "HgN/A
3:00 PM91 °FPartly sunny.8 mph59%29.77 "HgN/A
2:00 PM91 °FPartly sunny.9 mph59%29.80 "HgN/A
1:00 PM90 °FPartly sunny.10 mph63%29.83 "HgN/A
12:00 PM90 °FPartly sunny.9 mph63%29.86 "HgN/A
11:00 AM88 °FPartly sunny.13 mph70%29.89 "Hg5 mi
10:00 AM86 °FPartly sunny.8 mph75%29.86 "Hg5 mi
9:00 AM84 °FPartly sunny.8 mph79%29.86 "Hg4 mi
Weather by CustomWeather, © 2015

See weather overviewHow to use our weather pages